Location: Pian di Sc�
(43.6333°N, 11.5500°E)
Time: 18:43:03
(UTC+00:00)

Cosmos 2227 Rocket - Pass Details

Date: 07 August 2020
Orbit: 840 x 844 km, 71.0° (Epoch: 19 September)

Event Time Altitude Azimuth Distance (km) Brightness Sun altitude
Exits shadow 01:32:59 47° 246° (WSW) 1,105 2.4 -22.7°
Maximum altitude 01:34:20 61° 298° (WNW) 958 2.4 -22.6°
Drops below altitude 10° 01:39:57 10° 19° (NNE) 2,472 5.6 -22.0°
Sets 01:42:27 0° 23° (NNE) 3,410 6.7 -21.7°
